Location: Recife
(8.0585°S, 34.8848°W)
Time: 22:35:41
(UTC-03:00)

A-11 Canister half - Pass Details

Date: 15 April 2026
Orbit: 1523 x 1684 km, 47.3° (Epoch: 19 May)

Event Time Altitude Azimuth Distance (km) Brightness Sun altitude
Rises 21:03:58 0° 226° (SW) 4,748 11.9 -56.5°
Reaches altitude 10° 21:07:02 10° 229° (SW) 3,781 11.2 -57.3°
Enters shadow 21:07:47 13° 230° (SW) 3,547 11.1 -57.4°
